Regional Weather Roundup
Issued by NWS

Home | Current Version | Previous Version | Graphics & Text | Print | Product List | Glossary On
Versions: 1 2 3 4 5 6 7 8 9 10 11 12 13 14 15 16 17 18 19 20 21 22 23 24 25 26 27 28 29 30 31 32 33 34 35 36 37 38 39 40 41 42 43 44 45 46 47 48 49 50
000
ASUS44 KMEG 292000
RWRTN
TENNESSEE HOURLY STATE WEATHER ROUNDUP
NATIONAL WEATHER SERVICE MEMPHIS TN
300 PM CDT THU SEP 29 2016

TNZ002-004-019-021-049-052-054-088>092-292100-
WEST TENNESSEE

CITY           SKY/WX    TMP DP  RH WIND       PRES   REMARKS
MEMPHIS INTL   MOSUNNY   74  51  44 N13G21    30.11F
NWS MEMPHIS      N/A     73 N/A N/A MISG        N/A
JACKSON        PTSUNNY  N/A N/A N/A NW17      30.11F
DYERSBURG      MOSUNNY  N/A N/A N/A MISG        N/A
UNION CITY     CLOUDY    63  54  72 NW12      30.12F
PARIS          CLOUDY    55  54  94 CALM      30.13F
LEXINGTON      CLOUDY    63  52  67 NW9       30.10S
$$

TNZ008-025-027-028-033-062-065-066-292100-
NORTH MIDDLE TENNESSEE

CITY           SKY/WX    TMP DP  RH WIND       PRES   REMARKS
NASHVILLE      CLOUDY    63  50  62 NW7       30.09S
CLARKSVILLE    CLOUDY    61  52  72 N6        30.10S
SMYRNA         CLOUDY    64  51  62 NW10      30.09S
COOKEVILLE     PTSUNNY   64  50  59 NW6       30.06F
CROSSVILLE     MOSUNNY   61  44  53 W13       30.06S
$$

TNZ061-075-076-078-094-096-097-292100-
SOUTH MIDDLE TENNESSEE

CITY           SKY/WX    TMP DP  RH WIND       PRES   REMARKS
SHELBYVILLE    CLOUDY    66  50  55 NW10      30.09S
$$

TNZ017-018-042-046-047-292100-
NORTHEAST TENNESSEE

CITY           SKY/WX    TMP DP  RH WIND       PRES   REMARKS
TRI CITIES     TSTM      67  58  72 W6        29.97F
$$

TNZ012-013-036-069-073-074-292100-
CENTRAL EAST TENNESSEE

CITY           SKY/WX    TMP DP  RH WIND       PRES   REMARKS
KNOXVILLE      MOSUNNY   71  50  47 W12       29.99F
OAK RIDGE      PTSUNNY   68  48  48 CALM      30.03S
GATLINBURG       N/A     70  52  52 VRB6      29.99S
$$

TNZ083-085-099-292100-
SOUTHEAST TENNESSEE

CITY           SKY/WX    TMP DP  RH WIND       PRES   REMARKS
CHATTANOOGA    PTSUNNY   72  44  36 N7        30.02S
$$

SKY/WX REPORTED AS FAIR MEANS FEW OR NO CLOUDS BELOW
12 THOUSAND FEET.





USA.gov is the U.S. government's official web portal to all federal, state and local government web resources and services.